IRIDIUM 73 [-] (25344 NORAD) Tracking and Keplerian Element Data

This shows tracking and keplerian element data for the satellite.

Feedback or suggestion? Click here.




ElementValue
Catalog25344
NameIRIDIUM 73 [-]
Epoch Orbit8291
Epoch Day323.59409017
Epoch Year2018
RAAN343.0093
Inclination86.4411
Eccentricity0.0002805
Argument of Perigee99.1835
Mean Anonmoly260.9686
Mean Motion14.49144953
Decay Rate1.27E-06
L11 25344U 98032C 18323.59409017 .00000127 00000-0 28053-4 0 9994
L22 25344 86.4411 343.0093 0002805 99.1835 260.9686 14.49144953 82917

Live tracking and technical data element details for IRIDIUM 73 [-] (NORAD 25344). IRIDIUM 73 [-] can be tracked NOW for your location showing map with azimuth and elevation plus other details from your city location.

Track the satellite on the map from your city or location and see movement details for azimuth, elevation, latitude, longitude, range, height, and movement on the map or in text.







IsCatalogInMostPopularTable: catalog: 25344, numindb: 58
Update: records affected: 1



GetName: 25344 IRIDIUM 73 [-]

Hit Count: updated at: Wed, 21 Nov 2018 05:54:24 GMT